Weather History for KSME - December, 2012

Change the Weather History Date:

Wednesday, December 26, 2012

  Actual Average Record
Temperature  
Mean Temperature 39 °F -  
Max Temperature 46 °F 44 °F 62 °F (2008)
Min Temperature 32 °F 26 °F 15 °F (2000)
Degree Days  
Heating Degree Days 26    
Moisture  
Dew Point 35 °F    
Average Humidity 91    
Maximum Humidity 100    
Minimum Humidity 76    
Precipitation  
Precipitation 0.19 in - - ()
Sea Level Pressure  
Sea Level Pressure 29.64 in    
Wind  
Wind Speed 12 mph (WNW)    
Max Wind Speed 24 mph    
Max Gust Speed 32 mph    
Visibility 8 miles    
Events Rain , Snow , Thunderstorm    
Averages and records for this station are not official NWS values.
T = Trace of Precipitation, MM = Missing Value Source: NWS Daily Summary

Daily Weather History Graph

Daily Weather History Graph

Search for Another Location

Airport or City:

Trip Planner

Search our weather history database for the weather conditions in past years. The results will help you decide how hot, cold, wet, or windy it might be!

Date:

Astronomy

Dec. 26, 2012 Rise Set
Actual Time 7:50 AM EST 5:28 PM EST
Civil Twilight 7:21 AM EST 5:57 PM EST
Nautical Twilight 6:48 AM EST 6:29 PM EST
Astronomical Twilight 6:17 AM EST 7:01 PM EST
Moon 4:20 PM EST (12/26) 6:13 AM EST (12/26)
Length of Visible Light 10h 35m
Length of Day
9h 37m
Waxing Gibbous, 97% of the Moon is Illuminated
Dec 26
Waxing Gibbous
Dec 28
Full
Jan 4
Last Quarter
Jan 11
New
Jan 18
First Quarter

Hourly Weather History & Observations

Time (EST) Temp. Windchill Dew Point Humidity Pressure Visibility Wind Dir Wind Speed Gust Speed Precip Events Conditions
12:15 AM 35.6 °F 29.9 °F 33.8 °F 93% 29.85 in 5.0 mi East 6.9 mph - 0.01 in Rain Light Rain
12:35 AM 35.6 °F 25.5 °F 33.8 °F 93% 29.75 in 4.0 mi East 17.3 mph 26.5 mph 0.03 in Rain Light Rain
12:55 AM 35.6 °F 27.5 °F 33.8 °F 93% 29.76 in 7.0 mi East 11.5 mph 23.0 mph 0.03 in Rain Light Rain
1:15 AM 35.6 °F 26.6 °F 35.6 °F 100% 29.73 in 10.0 mi ENE 13.8 mph 19.6 mph N/A   Light Drizzle
1:35 AM 35.6 °F 28.6 °F 35.6 °F 100% 29.73 in 10.0 mi ENE 9.2 mph - 0.01 in   Overcast
1:55 AM 37.4 °F 29.3 °F 35.6 °F 93% 29.71 in 10.0 mi East 12.7 mph 18.4 mph 0.01 in Rain Light Rain
2:15 AM 37.4 °F 27.8 °F 35.6 °F 93% 29.66 in 7.0 mi East 17.3 mph 24.2 mph 0.01 in Rain Light Rain
2:35 AM 37.4 °F 27.8 °F 35.6 °F 93% 29.64 in 10.0 mi East 17.3 mph 23.0 mph 0.01 in Rain Light Rain
2:55 AM 37.4 °F 28.5 °F 37.4 °F 100% 29.60 in 10.0 mi East 15.0 mph 23.0 mph 0.01 in   Overcast
3:15 AM 39.2 °F 32.0 °F 37.4 °F 93% 29.58 in 10.0 mi East 11.5 mph 24.2 mph N/A   Overcast
3:35 AM 41.0 °F 33.9 °F 37.4 °F 87% 29.57 in 10.0 mi East 12.7 mph 18.4 mph N/A   Overcast
4:15 AM 41.0 °F 33.5 °F 39.2 °F 93% 29.51 in 10.0 mi East 13.8 mph 20.7 mph N/A Rain , Thunderstorm Light Thunderstorms and Rain
4:35 AM 41.0 °F 34.3 °F 41.0 °F 100% 29.49 in 7.0 mi East 11.5 mph 19.6 mph 0.01 in Rain Light Rain
4:55 AM 42.8 °F 38.6 °F 41.0 °F 93% 29.48 in 10.0 mi East 6.9 mph 24.2 mph 0.01 in Thunderstorm Overcast
5:15 AM 41.0 °F 35.8 °F 39.2 °F 93% 29.48 in 10.0 mi East 8.1 mph - N/A   Overcast
5:35 AM 41.0 °F 36.4 °F 41.0 °F 100% 29.46 in 10.0 mi ENE 6.9 mph - N/A   Overcast
5:55 AM 42.8 °F 39.3 °F 41.0 °F 93% 29.43 in 10.0 mi East 5.8 mph - N/A   Light Drizzle
6:15 AM 42.8 °F 39.3 °F 41.0 °F 93% 29.43 in 10.0 mi ENE 5.8 mph - 0.01 in Rain Rain
6:35 AM 42.8 °F 40.1 °F 41.0 °F 93% 29.44 in 10.0 mi NE 4.6 mph - 0.01 in Rain Light Rain
6:55 AM 42.8 °F 39.3 °F 41.0 °F 93% 29.42 in 10.0 mi ENE 5.8 mph - 0.01 in Rain Rain
7:15 AM 42.8 °F 40.1 °F 41.0 °F 93% 29.43 in 10.0 mi NNE 4.6 mph - 0.01 in Rain Light Rain
7:35 AM 42.8 °F 40.1 °F 41.0 °F 93% 29.43 in 10.0 mi ENE 4.6 mph - 0.01 in Rain Light Rain
7:55 AM 42.8 °F 39.3 °F 41.0 °F 93% 29.42 in 10.0 mi ENE 5.8 mph - 0.01 in Rain Light Rain
8:15 AM 42.8 °F 40.1 °F 42.8 °F 100% 29.42 in 10.0 mi ENE 4.6 mph - N/A   Overcast
8:35 AM 42.8 °F 41.1 °F 42.8 °F 100% 29.41 in 10.0 mi East 3.5 mph - N/A   Drizzle
8:55 AM 44.6 °F 40.7 °F 42.8 °F 93% 29.46 in 7.0 mi WSW 6.9 mph - 0.05 in Rain Light Rain
9:15 AM 44.6 °F 40.7 °F 42.8 °F 93% 29.45 in 10.0 mi West 6.9 mph - N/A   Overcast
9:35 AM 44.6 °F 42.2 °F 42.8 °F 93% 29.47 in 10.0 mi SSW 4.6 mph - N/A Rain Light Rain
9:55 AM 44.6 °F 43.1 °F 42.8 °F 93% 29.48 in 5.0 mi SW 3.5 mph - 0.02 in Rain Rain
10:15 AM 44.6 °F - 42.8 °F 93% 29.48 in 10.0 mi Calm Calm - 0.01 in Rain Light Rain
10:35 AM 46.4 °F 41.9 °F 42.8 °F 87% 29.48 in 10.0 mi WSW 9.2 mph - 0.01 in   Overcast
10:55 AM 46.4 °F 39.5 °F 41.0 °F 81% 29.48 in 10.0 mi WSW 17.3 mph - 0.01 in   Overcast
11:15 AM 44.6 °F 38.4 °F 39.2 °F 81% 29.49 in 10.0 mi SW 12.7 mph 19.6 mph N/A   Overcast
11:35 AM 44.6 °F 37.2 °F 39.2 °F 81% 29.49 in 10.0 mi SW 17.3 mph 20.7 mph N/A   Overcast
11:55 AM 44.6 °F 37.8 °F 37.4 °F 76% 29.49 in 10.0 mi WSW 15.0 mph 26.5 mph N/A   Overcast
12:15 PM 44.6 °F 35.7 °F 37.4 °F 76% 29.49 in 10.0 mi WSW 24.2 mph 29.9 mph 0.01 in   Overcast
12:35 PM 44.6 °F 36.4 °F 39.2 °F 81% 29.50 in 5.0 mi WSW 20.7 mph 27.6 mph 0.01 in   Drizzle
12:55 PM 41.0 °F 32.8 °F 39.2 °F 93% 29.50 in 2.5 mi WSW 16.1 mph - 0.01 in   Drizzle
1:15 PM 42.8 °F 34.5 °F 35.6 °F 76% 29.50 in 10.0 mi SW 18.4 mph 27.6 mph N/A   Overcast
1:35 PM 41.0 °F 32.5 °F 35.6 °F 81% 29.52 in 7.0 mi WSW 17.3 mph 31.1 mph N/A   Light Drizzle
1:55 PM 39.2 °F 29.8 °F 35.6 °F 87% 29.54 in 4.0 mi WSW 18.4 mph 27.6 mph N/A Rain Rain
2:15 PM 37.4 °F 28.2 °F 33.8 °F 87% 29.55 in 5.0 mi WSW 16.1 mph 21.9 mph 0.01 in Rain Light Rain
2:35 PM 35.6 °F 24.0 °F 33.8 °F 93% 29.57 in 7.0 mi WSW 23.0 mph 28.8 mph 0.02 in Rain Light Rain
2:55 PM 35.6 °F 24.2 °F 33.8 °F 93% 29.59 in 7.0 mi WSW 21.9 mph 27.6 mph 0.02 in   Drizzle
3:15 PM 35.6 °F 24.2 °F 32.0 °F 87% 29.60 in 7.0 mi WSW 21.9 mph 32.2 mph N/A   Drizzle
3:35 PM 33.8 °F 24.8 °F 32.0 °F 93% 29.62 in 10.0 mi West 12.7 mph 20.7 mph N/A Rain Light Rain
3:55 PM 33.8 °F 22.8 °F 32.0 °F 93% 29.64 in 7.0 mi West 18.4 mph 25.3 mph N/A Rain Light Rain
4:15 PM 33.8 °F 23.5 °F 32.0 °F 93% 29.66 in 4.0 mi West 16.1 mph 23.0 mph N/A Snow Light Snow
4:35 PM 32.0 °F 21.2 °F 32.0 °F 100% 29.68 in 3.0 mi West 16.1 mph 27.6 mph N/A Snow Light Snow
4:55 PM 32.0 °F 21.6 °F 32.0 °F 100% 29.70 in 3.0 mi West 15.0 mph 18.4 mph N/A Snow Light Snow
5:15 PM 32.0 °F 22.1 °F 32.0 °F 100% 29.71 in 2.5 mi West 13.8 mph 19.6 mph N/A Snow Light Snow
5:35 PM 32.0 °F 23.6 °F 30.2 °F 93% 29.72 in 10.0 mi West 10.4 mph 17.3 mph N/A   Overcast
5:55 PM 32.0 °F 21.2 °F 30.2 °F 93% 29.75 in 10.0 mi WNW 16.1 mph 21.9 mph N/A   Overcast
6:15 PM 32.0 °F 22.1 °F 30.2 °F 93% 29.76 in 10.0 mi WNW 13.8 mph 18.4 mph N/A   Overcast
6:35 PM 32.0 °F 22.1 °F 30.2 °F 93% 29.79 in 5.0 mi WNW 13.8 mph 23.0 mph N/A Snow Light Snow
6:55 PM 32.0 °F 22.1 °F 30.2 °F 93% 29.81 in 7.0 mi WNW 13.8 mph 20.7 mph N/A   Overcast
7:15 PM 32.0 °F 22.1 °F 30.2 °F 93% 29.83 in 7.0 mi West 13.8 mph 19.6 mph N/A   Overcast
7:35 PM 32.0 °F 23.6 °F 30.2 °F 93% 29.84 in 10.0 mi WNW 10.4 mph 23.0 mph N/A   Overcast
8:15 PM 32.0 °F 21.6 °F 28.4 °F 87% 29.87 in 10.0 mi WNW 15.0 mph 24.2 mph N/A   Overcast
8:35 PM 32.0 °F 21.2 °F 28.4 °F 87% 29.88 in 10.0 mi WNW 16.1 mph 21.9 mph N/A   Overcast
8:55 PM 32.0 °F 22.5 °F 28.4 °F 87% 29.89 in 10.0 mi NW 12.7 mph 20.7 mph N/A   Overcast
9:15 PM 32.0 °F 20.8 °F 28.4 °F 87% 29.91 in 10.0 mi NW 17.3 mph 21.9 mph N/A   Overcast
9:35 PM 32.0 °F 23.6 °F 28.4 °F 87% 29.93 in 10.0 mi WNW 10.4 mph 18.4 mph N/A   Overcast
9:55 PM 32.0 °F 23.6 °F 28.4 °F 87% 29.94 in 10.0 mi NW 10.4 mph - N/A   Overcast
10:15 PM 32.0 °F 23.6 °F 28.4 °F 87% 29.95 in 10.0 mi WNW 10.4 mph 16.1 mph N/A   Overcast
10:35 PM 32.0 °F 20.8 °F 28.4 °F 87% 29.97 in 10.0 mi West 17.3 mph 24.2 mph N/A   Overcast
10:55 PM 32.0 °F 23.0 °F 28.4 °F 87% 29.97 in 10.0 mi WNW 11.5 mph 20.7 mph N/A   Overcast
11:15 PM 32.0 °F 24.2 °F 28.4 °F 87% 29.98 in 10.0 mi WNW 9.2 mph - N/A   Overcast
11:35 PM 32.0 °F 22.5 °F 28.4 °F 87% 29.98 in 10.0 mi West 12.7 mph - N/A   Overcast
11:55 PM 32.0 °F 25.6 °F 28.4 °F 87% 29.98 in 10.0 mi West 6.9 mph 16.1 mph N/A   Overcast